Year,Month,Day,Hour,Minute,Value (Times are PST for windgust in km/hr)
2010,11,15,00,00,1.60
2010,11,15,00,01,3.20
2010,11,15,00,02,1.60
2010,11,15,00,03,3.20
2010,11,15,00,04,4.80
2010,11,15,00,05,3.20
2010,11,15,00,06,3.20
2010,11,15,00,07,4.80
2010,11,15,00,08,1.60
2010,11,15,00,09,3.20
2010,11,15,00,10,1.60
2010,11,15,00,11,3.20
2010,11,15,00,12,3.20
2010,11,15,00,13,3.20
2010,11,15,00,14,4.80
2010,11,15,00,15,1.60
2010,11,15,00,16,3.20
2010,11,15,00,17,1.60
2010,11,15,00,18,1.60
2010,11,15,00,19,3.20
2010,11,15,00,20,3.20
2010,11,15,00,21,3.20
2010,11,15,00,23,1.60
2010,11,15,00,24,3.20
2010,11,15,00,27,1.60
2010,11,15,00,50,3.20
2010,11,15,00,52,3.20
2010,11,15,01,14,1.60
2010,11,15,01,15,1.60
2010,11,15,01,16,3.20
2010,11,15,01,17,1.60
2010,11,15,01,19,1.60
2010,11,15,01,20,1.60
2010,11,15,01,22,3.20
2010,11,15,01,23,1.60
2010,11,15,01,24,1.60
2010,11,15,01,25,1.60
2010,11,15,01,26,1.60
2010,11,15,01,27,1.60
2010,11,15,01,28,3.20
2010,11,15,01,29,3.20
2010,11,15,01,30,1.60
2010,11,15,01,32,1.60
2010,11,15,01,33,1.60
2010,11,15,01,35,1.60
2010,11,15,01,40,1.60
2010,11,15,01,41,3.20
2010,11,15,01,42,1.60
2010,11,15,01,43,1.60
2010,11,15,01,44,3.20
2010,11,15,01,46,1.60
2010,11,15,01,47,4.80
2010,11,15,01,48,1.60
2010,11,15,01,49,1.60
2010,11,15,01,50,4.80
2010,11,15,01,51,1.60
2010,11,15,01,52,1.60
2010,11,15,01,53,4.80
2010,11,15,01,54,4.80
2010,11,15,01,56,1.60
2010,11,15,01,57,3.20
2010,11,15,01,58,3.20
2010,11,15,01,59,4.80
2010,11,15,02,00,4.80
2010,11,15,02,01,4.80
2010,11,15,02,02,4.80
2010,11,15,02,03,1.60
2010,11,15,02,04,6.40
2010,11,15,02,05,6.40
2010,11,15,02,06,4.80
2010,11,15,02,07,4.80
2010,11,15,02,08,1.60
2010,11,15,02,09,6.40
2010,11,15,02,10,4.80
2010,11,15,02,11,4.80
2010,11,15,02,12,4.80
2010,11,15,02,13,4.80
2010,11,15,02,14,1.60
2010,11,15,02,16,3.20
2010,11,15,02,17,3.20
2010,11,15,02,18,3.20
2010,11,15,02,19,3.20
2010,11,15,02,20,1.60
2010,11,15,02,21,4.80
2010,11,15,02,22,8.10
2010,11,15,02,23,6.40
2010,11,15,02,24,6.40
2010,11,15,02,25,14.50
2010,11,15,02,26,4.80
2010,11,15,02,27,9.60
2010,11,15,02,28,11.30
2010,11,15,02,29,8.10
2010,11,15,02,30,4.80
2010,11,15,02,31,1.60
2010,11,15,02,32,11.30
2010,11,15,02,33,6.40
2010,11,15,02,34,6.40
2010,11,15,02,35,9.60
2010,11,15,02,36,12.90
2010,11,15,02,37,9.60
2010,11,15,02,38,14.50
2010,11,15,02,39,11.30
2010,11,15,02,40,19.30
2010,11,15,02,41,11.30
2010,11,15,02,42,11.30
2010,11,15,02,43,11.30
2010,11,15,02,44,11.30
2010,11,15,02,45,9.60
2010,11,15,02,46,9.60
2010,11,15,02,47,6.40
2010,11,15,02,48,6.40
2010,11,15,02,49,4.80
2010,11,15,02,50,4.80
2010,11,15,02,51,3.20
2010,11,15,02,52,4.80
2010,11,15,02,53,3.20
2010,11,15,02,54,6.40
2010,11,15,02,55,3.20
2010,11,15,02,57,1.60
2010,11,15,03,08,3.20
2010,11,15,03,09,1.60
2010,11,15,03,12,1.60
2010,11,15,03,13,1.60
2010,11,15,03,14,1.60
2010,11,15,03,15,1.60
2010,11,15,03,18,3.20
2010,11,15,03,19,3.20
2010,11,15,03,22,3.20
2010,11,15,03,23,3.20
2010,11,15,03,28,3.20
2010,11,15,03,30,1.60
2010,11,15,03,33,3.20
2010,11,15,03,34,1.60
2010,11,15,03,35,1.60
2010,11,15,03,36,1.60
2010,11,15,03,37,1.60
2010,11,15,03,39,1.60
2010,11,15,03,40,1.60
2010,11,15,03,41,1.60
2010,11,15,03,42,1.60
2010,11,15,03,43,3.20
2010,11,15,03,44,1.60
2010,11,15,03,45,1.60
2010,11,15,03,46,3.20
2010,11,15,03,47,1.60
2010,11,15,03,50,3.20
2010,11,15,03,52,3.20
2010,11,15,03,53,1.60
2010,11,15,03,54,4.80
2010,11,15,03,55,1.60
2010,11,15,03,56,9.60
2010,11,15,03,57,6.40
2010,11,15,03,58,4.80
2010,11,15,03,59,4.80
2010,11,15,04,00,3.20
2010,11,15,04,01,1.60
2010,11,15,04,02,1.60
2010,11,15,04,03,3.20
2010,11,15,04,04,8.10
2010,11,15,04,06,3.20
2010,11,15,04,08,3.20
2010,11,15,04,09,4.80
2010,11,15,04,10,8.10
2010,11,15,04,11,11.30
2010,11,15,04,12,9.60
2010,11,15,04,13,11.30
2010,11,15,04,14,16.10
2010,11,15,04,15,11.30
2010,11,15,04,16,3.20
2010,11,15,04,17,14.50
2010,11,15,04,18,17.70
2010,11,15,04,19,9.60
2010,11,15,04,20,17.70
2010,11,15,04,21,17.70
2010,11,15,04,22,19.30
2010,11,15,04,23,19.30
2010,11,15,04,24,9.60
2010,11,15,04,25,14.50
2010,11,15,04,26,6.40
2010,11,15,04,27,8.10
2010,11,15,04,28,17.70
2010,11,15,04,29,9.60
2010,11,15,04,30,16.10
2010,11,15,04,31,20.90
2010,11,15,04,32,12.90
2010,11,15,04,33,17.70
2010,11,15,04,34,16.10
2010,11,15,04,35,14.50
2010,11,15,04,36,17.70
2010,11,15,04,37,16.10
2010,11,15,04,38,16.10
2010,11,15,04,39,19.30
2010,11,15,04,40,20.90
2010,11,15,04,41,14.50
2010,11,15,04,42,9.60
2010,11,15,04,43,25.70
2010,11,15,04,44,11.30
2010,11,15,04,45,11.30
2010,11,15,04,46,16.10
2010,11,15,04,47,17.70
2010,11,15,04,48,16.10
2010,11,15,04,49,22.50
2010,11,15,04,50,12.90
2010,11,15,04,51,17.70
2010,11,15,04,52,17.70
2010,11,15,04,53,16.10
2010,11,15,04,54,17.70
2010,11,15,04,55,17.70
2010,11,15,04,56,17.70
2010,11,15,04,57,19.30
2010,11,15,04,58,14.50
2010,11,15,04,59,9.60
2010,11,15,05,00,14.50
2010,11,15,05,01,19.30
2010,11,15,05,02,19.30
2010,11,15,05,03,19.30
2010,11,15,05,04,14.50
2010,11,15,05,05,22.50
2010,11,15,05,06,14.50
2010,11,15,05,07,16.10
2010,11,15,05,08,16.10
2010,11,15,05,09,19.30
2010,11,15,05,10,16.10
2010,11,15,05,11,22.50
2010,11,15,05,12,17.70
2010,11,15,05,13,16.10
2010,11,15,05,14,17.70
2010,11,15,05,15,16.10
2010,11,15,05,16,16.10
2010,11,15,05,17,9.60
2010,11,15,05,18,11.30
2010,11,15,05,19,19.30
2010,11,15,05,20,14.50
2010,11,15,05,21,14.50
2010,11,15,05,22,17.70
2010,11,15,05,23,17.70
2010,11,15,05,24,14.50
2010,11,15,05,25,11.30
2010,11,15,05,26,9.60
2010,11,15,05,27,16.10
2010,11,15,05,28,16.10
2010,11,15,05,29,16.10
2010,11,15,05,30,14.50
2010,11,15,05,31,8.10
2010,11,15,05,32,12.90
2010,11,15,05,33,16.10
2010,11,15,05,34,11.30
2010,11,15,05,35,8.10
2010,11,15,05,36,17.70
2010,11,15,05,37,9.60
2010,11,15,05,38,20.90
2010,11,15,05,39,6.40
2010,11,15,05,40,16.10
2010,11,15,05,41,16.10
2010,11,15,05,42,16.10
2010,11,15,05,43,6.40
2010,11,15,05,44,11.30
2010,11,15,05,45,14.50
2010,11,15,05,46,14.50
2010,11,15,05,47,9.60
2010,11,15,05,48,14.50
2010,11,15,05,49,11.30
2010,11,15,05,50,11.30
2010,11,15,05,51,11.30
2010,11,15,05,52,9.60
2010,11,15,05,53,9.60
2010,11,15,05,54,9.60
2010,11,15,05,55,9.60
2010,11,15,05,56,6.40
2010,11,15,05,57,8.10
2010,11,15,05,58,4.80
2010,11,15,05,59,6.40
2010,11,15,06,00,11.30
2010,11,15,06,01,4.80
2010,11,15,06,02,8.10
2010,11,15,06,03,12.90
2010,11,15,06,04,12.90
2010,11,15,06,05,9.60
2010,11,15,06,06,9.60
2010,11,15,06,07,11.30
2010,11,15,06,08,9.60
2010,11,15,06,09,4.80
2010,11,15,06,10,6.40
2010,11,15,06,11,11.30
2010,11,15,06,12,14.50
2010,11,15,06,13,8.10
2010,11,15,06,14,11.30
2010,11,15,06,15,9.60
2010,11,15,06,16,11.30
2010,11,15,06,17,14.50
2010,11,15,06,18,9.60
2010,11,15,06,19,16.10
2010,11,15,06,20,4.80
2010,11,15,06,21,11.30
2010,11,15,06,22,16.10
2010,11,15,06,23,9.60
2010,11,15,06,24,14.50
2010,11,15,06,25,9.60
2010,11,15,06,26,11.30
2010,11,15,06,27,14.50
2010,11,15,06,28,12.90
2010,11,15,06,29,6.40
2010,11,15,06,30,8.10
2010,11,15,06,31,17.70
2010,11,15,06,32,16.10
2010,11,15,06,33,16.10
2010,11,15,06,34,11.30
2010,11,15,06,35,9.60
2010,11,15,06,36,17.70
2010,11,15,06,37,16.10
2010,11,15,06,38,8.10
2010,11,15,06,39,12.90
2010,11,15,06,40,20.90
2010,11,15,06,41,16.10
2010,11,15,06,42,19.30
2010,11,15,06,43,17.70
2010,11,15,06,44,16.10
2010,11,15,06,45,16.10
2010,11,15,06,46,14.50
2010,11,15,06,47,14.50
2010,11,15,06,48,11.30
2010,11,15,06,49,17.70
2010,11,15,06,50,24.20
2010,11,15,06,51,12.90
2010,11,15,06,52,16.10
2010,11,15,06,53,9.60
2010,11,15,06,54,8.10
2010,11,15,06,55,11.30
2010,11,15,06,56,8.10
2010,11,15,06,57,19.30
2010,11,15,06,58,11.30
2010,11,15,06,59,16.10
2010,11,15,07,00,17.70
2010,11,15,07,01,11.30
2010,11,15,07,02,9.60
2010,11,15,07,03,19.30
2010,11,15,07,04,9.60
2010,11,15,07,05,8.10
2010,11,15,07,06,9.60
2010,11,15,07,07,11.30
2010,11,15,07,08,6.40
2010,11,15,07,09,9.60
2010,11,15,07,10,4.80
2010,11,15,07,11,14.50
2010,11,15,07,12,9.60
2010,11,15,07,13,20.90
2010,11,15,07,14,9.60
2010,11,15,07,15,16.10
2010,11,15,07,16,14.50
2010,11,15,07,17,11.30
2010,11,15,07,18,11.30
2010,11,15,07,19,12.90
2010,11,15,07,20,14.50
2010,11,15,07,21,9.60
2010,11,15,07,22,16.10
2010,11,15,07,23,8.10
2010,11,15,07,24,8.10
2010,11,15,07,25,11.30
2010,11,15,07,26,9.60
2010,11,15,07,27,8.10
2010,11,15,07,28,11.30
2010,11,15,07,29,9.60
2010,11,15,07,30,6.40
2010,11,15,07,31,16.10
2010,11,15,07,32,6.40
2010,11,15,07,33,8.10
2010,11,15,07,34,4.80
2010,11,15,07,35,8.10
2010,11,15,07,36,4.80
2010,11,15,07,37,1.60
2010,11,15,07,38,4.80
2010,11,15,07,39,6.40
2010,11,15,07,40,9.60
2010,11,15,07,41,8.10
2010,11,15,07,42,6.40
2010,11,15,07,43,8.10
2010,11,15,07,44,6.40
2010,11,15,07,45,6.40
2010,11,15,07,46,9.60
2010,11,15,07,47,9.60
2010,11,15,07,48,8.10
2010,11,15,07,49,8.10
2010,11,15,07,50,6.40
2010,11,15,07,51,8.10
2010,11,15,07,52,6.40
2010,11,15,07,53,8.10
2010,11,15,07,54,9.60
2010,11,15,07,55,4.80
2010,11,15,07,56,6.40
2010,11,15,07,57,14.50
2010,11,15,07,58,16.10
2010,11,15,07,59,8.10
2010,11,15,08,00,8.10
2010,11,15,08,01,9.60
2010,11,15,08,02,8.10
2010,11,15,08,03,6.40
2010,11,15,08,04,9.60
2010,11,15,08,05,8.10
2010,11,15,08,06,9.60
2010,11,15,08,07,8.10
2010,11,15,08,08,8.10
2010,11,15,08,09,4.80
2010,11,15,08,10,6.40
2010,11,15,08,11,6.40
2010,11,15,08,12,6.40
2010,11,15,08,13,6.40
2010,11,15,08,14,6.40
2010,11,15,08,15,4.80
2010,11,15,08,16,8.10
2010,11,15,08,17,4.80
2010,11,15,08,18,4.80
2010,11,15,08,19,6.40
2010,11,15,08,20,3.20
2010,11,15,08,21,3.20
2010,11,15,08,22,9.60
2010,11,15,08,23,8.10
2010,11,15,08,24,8.10
2010,11,15,08,25,9.60
2010,11,15,08,26,6.40
2010,11,15,08,27,8.10
2010,11,15,08,28,9.60
2010,11,15,08,29,9.60
2010,11,15,08,30,9.60
2010,11,15,08,31,6.40
2010,11,15,08,32,6.40
2010,11,15,08,33,9.60
2010,11,15,08,34,8.10
2010,11,15,08,35,9.60
2010,11,15,08,36,9.60
2010,11,15,08,37,9.60
2010,11,15,08,38,11.30
2010,11,15,08,39,9.60
2010,11,15,08,40,6.40
2010,11,15,08,41,4.80
2010,11,15,08,42,8.10
2010,11,15,08,43,9.60
2010,11,15,08,44,8.10
2010,11,15,08,45,11.30
2010,11,15,08,46,11.30
2010,11,15,08,47,14.50
2010,11,15,08,48,14.50
2010,11,15,08,49,16.10
2010,11,15,08,50,12.90
2010,11,15,08,51,14.50
2010,11,15,08,52,12.90
2010,11,15,08,53,9.60
2010,11,15,08,54,11.30
2010,11,15,08,55,14.50
2010,11,15,08,56,8.10
2010,11,15,08,57,9.60
2010,11,15,08,58,11.30
2010,11,15,08,59,11.30
2010,11,15,09,00,11.30
2010,11,15,09,01,11.30
2010,11,15,09,02,17.70
2010,11,15,09,03,16.10
2010,11,15,09,04,16.10
2010,11,15,09,05,11.30
2010,11,15,09,06,11.30
2010,11,15,09,07,14.50
2010,11,15,09,08,14.50
2010,11,15,09,09,16.10
2010,11,15,09,10,8.10
2010,11,15,09,11,9.60
2010,11,15,09,12,8.10
2010,11,15,09,13,14.50
2010,11,15,09,14,11.30
2010,11,15,09,15,9.60
2010,11,15,09,16,9.60
2010,11,15,09,17,14.50
2010,11,15,09,18,9.60
2010,11,15,09,19,11.30
2010,11,15,09,20,8.10
2010,11,15,09,21,11.30
2010,11,15,09,22,6.40
2010,11,15,09,23,11.30
2010,11,15,09,24,14.50
2010,11,15,09,25,8.10
2010,11,15,09,26,9.60
2010,11,15,09,27,8.10
2010,11,15,09,28,8.10
2010,11,15,09,29,11.30
2010,11,15,09,30,11.30
2010,11,15,09,31,9.60
2010,11,15,09,32,8.10
2010,11,15,09,33,8.10
2010,11,15,09,34,11.30
2010,11,15,09,35,4.80
2010,11,15,09,36,8.10
2010,11,15,09,37,11.30
2010,11,15,09,38,8.10
2010,11,15,09,39,8.10
2010,11,15,09,40,9.60
2010,11,15,09,41,9.60
2010,11,15,09,42,8.10
2010,11,15,09,43,8.10
2010,11,15,09,44,11.30
2010,11,15,09,45,11.30
2010,11,15,09,46,9.60
2010,11,15,09,47,9.60
2010,11,15,09,48,9.60
2010,11,15,09,49,3.20
2010,11,15,09,50,9.60
2010,11,15,09,51,12.90
2010,11,15,09,52,8.10
2010,11,15,09,53,4.80
2010,11,15,09,54,6.40
2010,11,15,09,55,4.80
2010,11,15,09,56,3.20
2010,11,15,09,57,6.40
2010,11,15,09,58,9.60
2010,11,15,09,59,8.10
2010,11,15,10,00,6.40
2010,11,15,10,01,9.60
2010,11,15,10,02,6.40
2010,11,15,10,03,6.40
2010,11,15,10,04,8.10
2010,11,15,10,05,6.40
2010,11,15,10,06,4.80
2010,11,15,10,07,9.60
2010,11,15,10,08,9.60
2010,11,15,10,09,4.80
2010,11,15,10,10,11.30
2010,11,15,10,11,11.30
2010,11,15,10,12,6.40
2010,11,15,10,13,6.40
2010,11,15,10,14,8.10
2010,11,15,10,15,9.60
2010,11,15,10,16,8.10
2010,11,15,10,17,14.50
2010,11,15,10,18,9.60
2010,11,15,10,19,9.60
2010,11,15,10,20,11.30
2010,11,15,10,21,9.60
2010,11,15,10,22,9.60
2010,11,15,10,23,14.50
2010,11,15,10,24,12.90
2010,11,15,10,25,11.30
2010,11,15,10,26,8.10
2010,11,15,10,27,11.30
2010,11,15,10,28,12.90
2010,11,15,10,29,16.10
2010,11,15,10,30,6.40
2010,11,15,10,31,6.40
2010,11,15,10,32,11.30
2010,11,15,10,33,9.60
2010,11,15,10,34,9.60
2010,11,15,10,35,8.10
2010,11,15,10,36,8.10
2010,11,15,10,37,1.60
2010,11,15,10,38,4.80
2010,11,15,10,39,8.10
2010,11,15,10,40,14.50
2010,11,15,10,41,6.40
2010,11,15,10,42,9.60
2010,11,15,10,43,6.40
2010,11,15,10,44,8.10
2010,11,15,10,45,4.80
2010,11,15,10,46,6.40
2010,11,15,10,47,6.40
2010,11,15,10,48,6.40
2010,11,15,10,49,8.10
2010,11,15,10,50,1.60
2010,11,15,10,51,3.20
2010,11,15,10,52,6.40
2010,11,15,10,53,4.80
2010,11,15,10,54,6.40
2010,11,15,10,55,6.40
2010,11,15,10,56,4.80
2010,11,15,10,57,8.10
2010,11,15,10,58,8.10
2010,11,15,10,59,6.40
2010,11,15,11,00,4.80
2010,11,15,11,01,11.30
2010,11,15,11,02,9.60
2010,11,15,11,03,8.10
2010,11,15,11,04,8.10
2010,11,15,11,05,6.40
2010,11,15,11,06,6.40
2010,11,15,11,07,11.30
2010,11,15,11,08,4.80
2010,11,15,11,09,11.30
2010,11,15,11,10,8.10
2010,11,15,11,11,6.40
2010,11,15,11,12,4.80
2010,11,15,11,13,9.60
2010,11,15,11,14,6.40
2010,11,15,11,15,8.10
2010,11,15,11,16,8.10
2010,11,15,11,17,6.40
2010,11,15,11,18,1.60
2010,11,15,11,19,8.10
2010,11,15,11,20,8.10
2010,11,15,11,21,8.10
2010,11,15,11,22,9.60
2010,11,15,11,23,9.60
2010,11,15,11,24,8.10
2010,11,15,11,25,9.60
2010,11,15,11,26,6.40
2010,11,15,11,27,1.60
2010,11,15,11,28,3.20
2010,11,15,11,29,8.10
2010,11,15,11,30,6.40
2010,11,15,11,31,11.30
2010,11,15,11,32,9.60
2010,11,15,11,33,6.40
2010,11,15,11,34,6.40
2010,11,15,11,35,9.60
2010,11,15,11,36,8.10
2010,11,15,11,37,6.40
2010,11,15,11,38,8.10
2010,11,15,11,39,11.30
2010,11,15,11,40,8.10
2010,11,15,11,41,9.60
2010,11,15,11,42,9.60
2010,11,15,11,43,4.80
2010,11,15,11,44,4.80
2010,11,15,11,45,8.10
2010,11,15,11,46,8.10
2010,11,15,11,47,8.10
2010,11,15,11,48,1.60
2010,11,15,11,49,4.80
2010,11,15,11,50,4.80
2010,11,15,11,51,8.10
2010,11,15,11,52,8.10
2010,11,15,11,53,8.10
2010,11,15,11,54,8.10
2010,11,15,11,55,9.60
2010,11,15,11,56,8.10
2010,11,15,11,57,9.60
2010,11,15,11,58,8.10
2010,11,15,11,59,8.10
2010,11,15,12,00,4.80
2010,11,15,12,01,8.10
2010,11,15,12,02,6.40
2010,11,15,12,03,12.90
2010,11,15,12,04,9.60
2010,11,15,12,05,17.70
2010,11,15,12,06,14.50
2010,11,15,12,07,11.30
2010,11,15,12,08,11.30
2010,11,15,12,09,16.10
2010,11,15,12,10,11.30
2010,11,15,12,11,11.30
2010,11,15,12,12,8.10
2010,11,15,12,13,9.60
2010,11,15,12,14,9.60
2010,11,15,12,15,16.10
2010,11,15,12,16,9.60
2010,11,15,12,17,12.90
2010,11,15,12,18,12.90
2010,11,15,12,19,14.50
2010,11,15,12,20,11.30
2010,11,15,12,21,9.60
2010,11,15,12,22,11.30
2010,11,15,12,23,9.60
2010,11,15,12,24,9.60
2010,11,15,12,25,14.50
2010,11,15,12,26,8.10
2010,11,15,12,27,9.60
2010,11,15,12,28,6.40
2010,11,15,12,29,9.60
2010,11,15,12,30,14.50
2010,11,15,12,31,12.90
2010,11,15,12,32,12.90
2010,11,15,12,33,3.20
2010,11,15,12,34,4.80
2010,11,15,12,35,6.40
2010,11,15,12,36,9.60
2010,11,15,12,37,9.60
2010,11,15,12,38,8.10
2010,11,15,12,39,9.60
2010,11,15,12,40,9.60
2010,11,15,12,41,11.30
2010,11,15,12,42,9.60
2010,11,15,12,43,9.60
2010,11,15,12,44,9.60
2010,11,15,12,45,11.30
2010,11,15,12,46,11.30
2010,11,15,12,47,11.30
2010,11,15,12,48,16.10
2010,11,15,12,49,12.90
2010,11,15,12,50,11.30
2010,11,15,12,51,11.30
2010,11,15,12,52,17.70
2010,11,15,12,53,14.50
2010,11,15,12,54,11.30
2010,11,15,12,55,16.10
2010,11,15,12,56,14.50
2010,11,15,12,57,14.50
2010,11,15,12,58,16.10
2010,11,15,12,59,11.30
2010,11,15,13,00,12.90
2010,11,15,13,01,11.30
2010,11,15,13,02,12.90
2010,11,15,13,03,17.70
2010,11,15,13,04,11.30
2010,11,15,13,05,14.50
2010,11,15,13,06,14.50
2010,11,15,13,07,16.10
2010,11,15,13,08,9.60
2010,11,15,13,09,9.60
2010,11,15,13,10,11.30
2010,11,15,13,11,8.10
2010,11,15,13,12,8.10
2010,11,15,13,13,11.30
2010,11,15,13,14,9.60
2010,11,15,13,15,8.10
2010,11,15,13,16,8.10
2010,11,15,13,17,12.90
2010,11,15,13,18,9.60
2010,11,15,13,19,11.30
2010,11,15,13,20,9.60
2010,11,15,13,21,11.30
2010,11,15,13,22,20.90
2010,11,15,13,23,14.50
2010,11,15,13,24,14.50
2010,11,15,13,25,19.30
2010,11,15,13,26,14.50
2010,11,15,13,27,14.50
2010,11,15,13,28,16.10
2010,11,15,13,29,16.10
2010,11,15,13,30,9.60
2010,11,15,13,31,9.60
2010,11,15,13,32,11.30
2010,11,15,13,33,16.10
2010,11,15,13,34,19.30
2010,11,15,13,35,16.10
2010,11,15,13,36,16.10
2010,11,15,13,37,20.90
2010,11,15,13,38,20.90
2010,11,15,13,39,20.90
2010,11,15,13,40,29.00
2010,11,15,13,41,25.70
2010,11,15,13,42,25.70
2010,11,15,13,43,17.70
2010,11,15,13,44,24.20
2010,11,15,13,45,27.40
2010,11,15,13,46,24.20
2010,11,15,13,47,20.90
2010,11,15,13,48,25.70
2010,11,15,13,49,9.60
2010,11,15,13,50,27.40
2010,11,15,13,51,24.20
2010,11,15,13,52,19.30
2010,11,15,13,53,22.50
2010,11,15,13,54,32.20
2010,11,15,13,55,32.20
2010,11,15,13,56,17.70
2010,11,15,13,57,30.60
2010,11,15,13,58,32.20
2010,11,15,13,59,33.80
2010,11,15,14,00,29.00
2010,11,15,14,01,40.20
2010,11,15,14,02,33.80
2010,11,15,14,03,37.00
2010,11,15,14,04,29.00
2010,11,15,14,05,27.40
2010,11,15,14,06,33.80
2010,11,15,14,07,27.40
2010,11,15,14,08,32.20
2010,11,15,14,09,35.40
2010,11,15,14,10,25.70
2010,11,15,14,11,32.20
2010,11,15,14,12,53.10
2010,11,15,14,13,38.60
2010,11,15,14,14,25.70
2010,11,15,14,15,33.80
2010,11,15,14,16,27.40
2010,11,15,14,17,27.40
2010,11,15,14,18,22.50
2010,11,15,14,19,30.60
2010,11,15,14,20,33.80
2010,11,15,14,21,35.40
2010,11,15,14,22,27.40
2010,11,15,14,23,27.40
2010,11,15,14,24,33.80
2010,11,15,14,25,30.60
2010,11,15,14,26,30.60
2010,11,15,14,27,22.50
2010,11,15,14,28,35.40
2010,11,15,14,29,27.40
2010,11,15,14,30,22.50
2010,11,15,14,31,20.90
2010,11,15,14,32,32.20
2010,11,15,14,33,19.30
2010,11,15,14,34,22.50
2010,11,15,14,35,20.90
2010,11,15,14,36,19.30
2010,11,15,14,37,20.90
2010,11,15,14,38,17.70
2010,11,15,14,39,19.30
2010,11,15,14,40,25.70
2010,11,15,14,41,17.70
2010,11,15,14,42,19.30
2010,11,15,14,43,16.10
2010,11,15,14,44,14.50
2010,11,15,14,45,17.70
2010,11,15,14,46,16.10
2010,11,15,14,47,14.50
2010,11,15,14,48,17.70
2010,11,15,14,49,12.90
2010,11,15,14,50,19.30
2010,11,15,14,51,9.60
2010,11,15,14,52,17.70
2010,11,15,14,53,11.30
2010,11,15,14,54,16.10
2010,11,15,14,55,20.90
2010,11,15,14,56,22.50
2010,11,15,14,57,19.30
2010,11,15,14,58,17.70
2010,11,15,14,59,16.10
2010,11,15,15,00,17.70
2010,11,15,15,01,16.10
2010,11,15,15,02,11.30
2010,11,15,15,03,19.30
2010,11,15,15,04,11.30
2010,11,15,15,05,8.10
2010,11,15,15,06,8.10
2010,11,15,15,07,14.50
2010,11,15,15,08,17.70
2010,11,15,15,09,9.60
2010,11,15,15,10,8.10
2010,11,15,15,11,8.10
2010,11,15,15,12,11.30
2010,11,15,15,13,9.60
2010,11,15,15,14,8.10
2010,11,15,15,15,16.10
2010,11,15,15,16,11.30
2010,11,15,15,17,14.50
2010,11,15,15,18,9.60
2010,11,15,15,19,20.90
2010,11,15,15,20,16.10
2010,11,15,15,21,9.60
2010,11,15,15,22,12.90
2010,11,15,15,23,9.60
2010,11,15,15,24,8.10
2010,11,15,15,25,9.60
2010,11,15,15,26,9.60
2010,11,15,15,27,9.60
2010,11,15,15,28,16.10
2010,11,15,15,29,14.50
2010,11,15,15,30,17.70
2010,11,15,15,31,17.70
2010,11,15,15,32,20.90
2010,11,15,15,33,17.70
2010,11,15,15,34,17.70
2010,11,15,15,35,20.90
2010,11,15,15,36,20.90
2010,11,15,15,37,12.90
2010,11,15,15,38,17.70
2010,11,15,15,39,25.70
2010,11,15,15,40,19.30
2010,11,15,15,41,24.20
2010,11,15,15,42,27.40
2010,11,15,15,43,19.30
2010,11,15,15,44,20.90
2010,11,15,15,45,25.70
2010,11,15,15,46,27.40
2010,11,15,15,47,25.70
2010,11,15,15,48,29.00
2010,11,15,15,49,24.20
2010,11,15,15,50,22.50
2010,11,15,15,51,24.20
2010,11,15,15,52,32.20
2010,11,15,15,53,38.60
2010,11,15,15,54,25.70
2010,11,15,15,55,20.90
2010,11,15,15,56,33.80
2010,11,15,15,57,35.40
2010,11,15,15,58,25.70
2010,11,15,15,59,30.60
2010,11,15,16,00,27.40
2010,11,15,16,01,27.40
2010,11,15,16,02,27.40
2010,11,15,16,03,24.20
2010,11,15,16,04,20.90
2010,11,15,16,05,25.70
2010,11,15,16,06,32.20
2010,11,15,16,07,24.20
2010,11,15,16,08,20.90
2010,11,15,16,09,33.80
2010,11,15,16,10,32.20
2010,11,15,16,11,25.70
2010,11,15,16,12,32.20
2010,11,15,16,13,25.70
2010,11,15,16,14,24.20
2010,11,15,16,15,32.20
2010,11,15,16,16,27.40
2010,11,15,16,17,19.30
2010,11,15,16,18,20.90
2010,11,15,16,19,37.00
2010,11,15,16,20,30.60
2010,11,15,16,21,22.50
2010,11,15,16,22,37.00
2010,11,15,16,23,45.10
2010,11,15,16,24,27.40
2010,11,15,16,25,22.50
2010,11,15,16,26,38.60
2010,11,15,16,27,30.60
2010,11,15,16,28,24.20
2010,11,15,16,29,29.00
2010,11,15,16,30,22.50
2010,11,15,16,31,27.40
2010,11,15,16,32,24.20
2010,11,15,16,33,30.60
2010,11,15,16,34,24.20
2010,11,15,16,35,27.40
2010,11,15,16,36,19.30
2010,11,15,16,37,20.90
2010,11,15,16,38,30.60
2010,11,15,16,39,33.80
2010,11,15,16,40,27.40
2010,11,15,16,41,41.80
2010,11,15,16,42,17.70
2010,11,15,16,43,20.90
2010,11,15,16,44,33.80
2010,11,15,16,45,32.20
2010,11,15,16,46,22.50
2010,11,15,16,47,30.60
2010,11,15,16,48,24.20
2010,11,15,16,49,32.20
2010,11,15,16,50,27.40
2010,11,15,16,51,35.40
2010,11,15,16,52,27.40
2010,11,15,16,53,30.60
2010,11,15,16,54,25.70
2010,11,15,16,55,22.50
2010,11,15,16,56,22.50
2010,11,15,16,57,27.40
2010,11,15,16,58,17.70
2010,11,15,16,59,22.50
2010,11,15,17,00,27.40
2010,11,15,17,01,25.70
2010,11,15,17,02,16.10
2010,11,15,17,03,25.70
2010,11,15,17,04,29.00
2010,11,15,17,05,25.70
2010,11,15,17,06,14.50
2010,11,15,17,07,17.70
2010,11,15,17,08,11.30
2010,11,15,17,09,19.30
2010,11,15,17,10,20.90
2010,11,15,17,11,25.70
2010,11,15,17,12,22.50
2010,11,15,17,13,19.30
2010,11,15,17,14,27.40
2010,11,15,17,15,22.50
2010,11,15,17,16,29.00
2010,11,15,17,17,19.30
2010,11,15,17,18,16.10
2010,11,15,17,19,29.00
2010,11,15,17,20,24.20
2010,11,15,17,21,17.70
2010,11,15,17,22,19.30
2010,11,15,17,23,22.50
2010,11,15,17,24,14.50
2010,11,15,17,25,29.00
2010,11,15,17,26,30.60
2010,11,15,17,27,22.50
2010,11,15,17,28,29.00
2010,11,15,17,29,24.20
2010,11,15,17,30,17.70
2010,11,15,17,31,24.20
2010,11,15,17,32,25.70
2010,11,15,17,33,27.40
2010,11,15,17,34,17.70
2010,11,15,17,35,16.10
2010,11,15,17,36,19.30
2010,11,15,17,37,24.20
2010,11,15,17,38,20.90
2010,11,15,17,39,22.50
2010,11,15,17,40,22.50
2010,11,15,17,41,20.90
2010,11,15,17,42,16.10
2010,11,15,17,43,20.90
2010,11,15,17,44,27.40
2010,11,15,17,45,29.00
2010,11,15,17,46,29.00
2010,11,15,17,47,27.40
2010,11,15,17,48,27.40
2010,11,15,17,49,32.20
2010,11,15,17,50,19.30
2010,11,15,17,51,17.70
2010,11,15,17,52,30.60
2010,11,15,17,53,20.90
2010,11,15,17,54,17.70
2010,11,15,17,55,19.30
2010,11,15,17,56,22.50
2010,11,15,17,57,14.50
2010,11,15,17,58,24.20
2010,11,15,17,59,29.00
2010,11,15,18,00,27.40
2010,11,15,18,01,27.40
2010,11,15,18,02,9.60
2010,11,15,18,03,20.90
2010,11,15,18,04,24.20
2010,11,15,18,05,29.00
2010,11,15,18,06,29.00
2010,11,15,18,07,27.40
2010,11,15,18,08,25.70
2010,11,15,18,09,17.70
2010,11,15,18,10,29.00
2010,11,15,18,11,32.20
2010,11,15,18,12,24.20
2010,11,15,18,13,17.70
2010,11,15,18,14,24.20
2010,11,15,18,15,25.70
2010,11,15,18,16,25.70
2010,11,15,18,17,30.60
2010,11,15,18,18,12.90
2010,11,15,18,19,8.10
2010,11,15,18,20,20.90
2010,11,15,18,21,29.00
2010,11,15,18,22,16.10
2010,11,15,18,23,20.90
2010,11,15,18,24,22.50
2010,11,15,18,25,32.20
2010,11,15,18,26,35.40
2010,11,15,18,27,19.30
2010,11,15,18,28,29.00
2010,11,15,18,29,19.30
2010,11,15,18,30,8.10
2010,11,15,18,31,40.20
2010,11,15,18,32,30.60
2010,11,15,18,33,24.20
2010,11,15,18,34,19.30
2010,11,15,18,35,35.40
2010,11,15,18,36,40.20
2010,11,15,18,37,17.70
2010,11,15,18,38,20.90
2010,11,15,18,39,32.20
2010,11,15,18,40,22.50
2010,11,15,18,41,33.80
2010,11,15,18,42,29.00
2010,11,15,18,43,40.20
2010,11,15,18,44,46.70
2010,11,15,18,45,19.30
2010,11,15,18,46,29.00
2010,11,15,18,47,25.70
2010,11,15,18,48,25.70
2010,11,15,18,49,22.50
2010,11,15,18,50,19.30
2010,11,15,18,51,27.40
2010,11,15,18,52,25.70
2010,11,15,18,53,33.80
2010,11,15,18,54,25.70
2010,11,15,18,55,33.80
2010,11,15,18,56,37.00
2010,11,15,18,57,38.60
2010,11,15,18,58,25.70
2010,11,15,18,59,30.60
2010,11,15,19,00,22.50
2010,11,15,19,01,32.20
2010,11,15,19,02,45.10
2010,11,15,19,03,35.40
2010,11,15,19,04,33.80
2010,11,15,19,05,37.00
2010,11,15,19,06,43.50
2010,11,15,19,07,29.00
2010,11,15,19,08,46.70